Regional Weather Roundup
Issued by NWS

Home | Current Version | Previous Version | Graphics & Text | Print | Product List | Glossary On
Versions: 1 2 3 4 5 6 7 8 9 10 11 12 13 14 15 16 17 18 19 20 21 22 23 24 25 26 27 28 29 30 31 32 33 34 35 36 37 38 39 40 41 42 43 44 45 46 47 48 49 50
000
ASUS43 KOAX 291902
RWRNE

WEATHER ROUNDUP FOR NEBRASKA
NATIONAL WEATHER SERVICE OMAHA NE
200 PM CDT MON MAY 29 2017

NOTES: SATELLITE DATA IS BEING USED TO AUGMENT CLOUD COVER ABOVE
       12000 FEET.
       "FAIR" INDICATES FEW OR NO CLOUDS BELOW 12,000 FEET WITH NO
       SIGNIFICANT WEATHER AND/OR OBSTRUCTIONS TO VISIBILITY.

  * THESE STATIONS DO NOT REPORT WEATHER SUCH AS RAIN...SNOW OR FOG.

NEZ001>004-019>022-054>056-292000-
NEBRASKA PANHANDLE

CITY           SKY/WX    TMP DP  RH WIND       PRES   REMARKS
SCOTTSBLUFF    MOSUNNY   71  33  24 NW15G25   30.18F
ALLIANCE       MOSUNNY   68  38  33 NW22G30   30.16F
CHADRON        SUNNY     68  32  26 NW15G30   30.14F
GORDON         FAIR      64  37  36 NW8G16    30.16F
KIMBALL        MOSUNNY   68  38  33 NW13G21   30.23S
SIDNEY         MOSUNNY   69  43  38 NW14G26   30.20F
$$

NEZ057>060-069>072-079>082-292000-
SOUTHWEST NEBRASKA

CITY           SKY/WX    TMP DP  RH WIND       PRES   REMARKS
NORTH PLATTE   SUNNY     72  42  34 NW16G24   30.12F
IMPERIAL       MOSUNNY   73  38  27 NW13G21   30.15F
LEXINGTON      SUNNY     74  34  22 NW16G26   30.11F
MCCOOK         MOSUNNY   76  38  25 NW16G29   30.12F
OGALLALA       MOSUNNY   73  37  27 NW15G21   30.16S
$$

NEZ005>010-023>029-035>040-094-292000-
NORTH CENTRAL NEBRASKA

CITY           SKY/WX    TMP DP  RH WIND       PRES   REMARKS
VALENTINE      MOSUNNY   68  34  28 NW17G29   30.13F
AINSWORTH      MOSUNNY   65  38  36 NW22G29   30.12F
BROKEN BOW     SUNNY     71  37  28 N18G29    30.11F
O`NEILL        PTSUNNY   65  37  34 NW21G30   30.09S
ORD            SUNNY     69  36  29 NW17G33   30.08F
THEDFORD       MOSUNNY   69  38  32 NW13G21   30.14S
$$

NEZ041-046>049-061>064-073>077-083>087-292000-
SOUTH CENTRAL NEBRASKA

CITY           SKY/WX    TMP DP  RH WIND       PRES   REMARKS
GRAND ISLAND   MOSUNNY   75  41  29 NW15G25   30.08F
AURORA         PTSUNNY   74  36  24 NW21G30   30.07F
HASTINGS       MOSUNNY   74  39  28 N15G25    30.09F
HEBRON         MOSUNNY   78  39  24 W12G21    30.05F
HOLDREGE       MOSUNNY   72  36  26 N10       30.10F
KEARNEY *      MOSUNNY   73  37  27 NW10G24   30.10F
YORK           MOSUNNY   73  36  25 NW22G28   30.06S
$$

NEZ011>018-030>034-042>045-292000-
NORTHEAST NEBRASKA

CITY           SKY/WX    TMP DP  RH WIND       PRES   REMARKS
NORFOLK        MOSUNNY   70  38  31 NW22G30   30.03F
ALBION         MOSUNNY   69  38  32 NW18G32   30.07S
BLAIR          MOSUNNY   71  37  29 NW21G29   30.02S
FREMONT        PTSUNNY   74  40  29 W24G30    30.04S
TEKAMAH        PTSUNNY   72  35  25 NW22G31   30.00F
WAYNE          PTSUNNY   70  41  35 NW21G30   30.02S
$$

NEZ050>053-065>068-078-088>093-292000-
SOUTHEAST NEBRASKA

CITY           SKY/WX    TMP DP  RH WIND       PRES   REMARKS
LINCOLN        PTSUNNY   77  40  26 N20       30.04F
OMAHA EPPLEY   MOSUNNY   75  37  25 W23G30    30.00F
BEATRICE       SUNNY     76  44  31 N17G23    30.04S
NEBRASKA CITY  MOSUNNY   76  33  21 NW18G25   30.02S
PLATTSMOUTH    MOSUNNY   76  35  22 W21G31    30.02S
$$

NEZ044-045-051>053-067-292000-
OMAHA AREA

CITY           SKY/WX    TMP DP  RH WIND       PRES   REMARKS
OMAHA EPPLEY   MOSUNNY   75  37  25 W23G30    30.00F
BLAIR          MOSUNNY   71  37  29 NW21G29   30.02S
FREMONT        PTSUNNY   74  40  29 W24G30    30.04S
MILLARD        MOSUNNY   75  45  34 NW16G25   30.02S
OFFUTT AFB     MOSUNNY   75  43  31 W17G29    30.00F
PLATTSMOUTH    MOSUNNY   76  35  22 W21G31    30.02S
WAHOO          MOCLDY    74  34  23 NW21G28   30.03F
$$



USA.gov is the U.S. government's official web portal to all federal, state and local government web resources and services.